Time,TemperatureF,DewpointF,PressureIn,WindDirection,WindDirectionDegrees,WindSpeedMPH,WindSpeedGustMPH,Humidity,HourlyPrecipIn,Conditions,Clouds,dailyrainin,SoftwareType,DateUTC
2013-06-06 00:01:00,54.6,50.8,30.14,WSW,241,0.0,0.0,87,0.00,,,0.00,Wunderground PWS Mod,2013-06-06 04:01:00,
2013-06-06 00:02:00,54.6,50.8,30.13,WSW,241,0.0,0.0,87,0.00,,,0.00,Wunderground PWS Mod,2013-06-06 04:02:00,
2013-06-06 00:04:00,54.6,50.5,30.14,WSW,241,0.0,0.0,86,0.00,,,0.00,Wunderground PWS Mod,2013-06-06 04:04:00,
2013-06-06 00:07:00,54.6,50.5,30.14,WSW,241,0.0,0.0,86,0.00,,,0.00,Wunderground PWS Mod,2013-06-06 04:07:00,
2013-06-06 00:12:00,54.4,50.3,30.14,WSW,241,0.0,0.0,86,0.00,,,0.00,Wunderground PWS Mod,2013-06-06 04:12:00,
2013-06-06 00:14:00,54.1,50.6,30.13,N/A,-737280,0.0,0.0,88,0.00,,,0.00,Wunderground PWS Mod,2013-06-06 04:14:00,
2013-06-06 00:18:00,54.3,50.5,30.13,WSW,241,0.0,0.0,87,0.00,,,0.00,Wunderground PWS Mod,2013-06-06 04:18:00,
2013-06-06 00:24:00,54.2,50.7,30.13,WSW,241,0.0,0.0,88,0.00,,,0.00,Wunderground PWS Mod,2013-06-06 04:24:00,
2013-06-06 00:29:00,54.2,50.7,30.13,WSW,241,0.0,0.0,88,0.00,,,0.00,Wunderground PWS Mod,2013-06-06 04:29:00,
2013-06-06 00:34:00,54.1,50.6,30.13,WSW,241,0.0,0.0,88,0.00,,,0.00,Wunderground PWS Mod,2013-06-06 04:34:00,
2013-06-06 00:40:00,54.0,50.8,30.13,WSW,241,0.0,0.0,89,0.00,,,0.00,Wunderground PWS Mod,2013-06-06 04:40:00,
2013-06-06 00:45:00,53.9,50.7,30.13,WSW,241,0.0,0.0,89,0.00,,,0.00,Wunderground PWS Mod,2013-06-06 04:45:00,
2013-06-06 00:50:00,53.8,50.3,30.12,WSW,241,0.0,0.0,88,0.00,,,0.00,Wunderground PWS Mod,2013-06-06 04:50:00,
2013-06-06 00:56:00,53.8,50.6,30.12,WSW,241,0.0,0.0,89,0.00,,,0.00,Wunderground PWS Mod,2013-06-06 04:56:00,
2013-06-06 01:01:00,53.8,50.6,30.13,WSW,241,0.0,0.0,89,0.00,,,0.00,Wunderground PWS Mod,2013-06-06 05:01:00,
2013-06-06 01:06:00,54.0,50.8,30.13,WSW,241,0.0,0.0,89,0.00,,,0.00,Wunderground PWS Mod,2013-06-06 05:06:00,
2013-06-06 01:12:00,54.1,50.9,30.13,WSW,241,0.0,0.0,89,0.00,,,0.00,Wunderground PWS Mod,2013-06-06 05:12:00,
2013-06-06 01:17:00,54.1,51.2,30.13,WSW,241,0.0,0.0,90,0.00,,,0.00,Wunderground PWS Mod,2013-06-06 05:17:00,
2013-06-06 01:22:00,54.1,51.2,30.13,WSW,241,0.0,0.0,90,0.00,,,0.00,Wunderground PWS Mod,2013-06-06 05:22:00,
2013-06-06 01:27:00,54.1,51.2,30.13,WSW,241,0.0,0.0,90,0.00,,,0.00,Wunderground PWS Mod,2013-06-06 05:27:00,
2013-06-06 01:34:00,54.1,51.2,30.13,WSW,241,0.0,0.0,90,0.00,,,0.00,Wunderground PWS Mod,2013-06-06 05:34:00,
2013-06-06 01:39:00,54.0,51.1,30.13,WSW,241,0.0,0.0,90,0.00,,,0.00,Wunderground PWS Mod,2013-06-06 05:39:00,
2013-06-06 01:44:00,54.0,51.4,30.13,WSW,241,0.0,0.0,91,0.00,,,0.00,Wunderground PWS Mod,2013-06-06 05:44:00,
2013-06-06 01:50:00,54.0,51.4,30.13,WSW,241,0.0,0.0,91,0.00,,,0.00,Wunderground PWS Mod,2013-06-06 05:50:00,
2013-06-06 01:55:00,54.0,51.4,30.13,WSW,241,0.0,0.0,91,0.00,,,0.00,Wunderground PWS Mod,2013-06-06 05:55:00,
2013-06-06 02:00:00,54.0,51.4,30.13,WSW,241,0.0,0.0,91,0.00,,,0.00,Wunderground PWS Mod,2013-06-06 06:00:00,
2013-06-06 02:06:00,54.0,51.4,30.13,WSW,241,0.0,0.0,91,0.00,,,0.00,Wunderground PWS Mod,2013-06-06 06:06:00,
2013-06-06 02:11:00,54.0,51.4,30.13,WSW,241,0.0,0.0,91,0.00,,,0.00,Wunderground PWS Mod,2013-06-06 06:11:00,
2013-06-06 02:16:00,53.9,51.3,30.12,WSW,241,0.0,0.0,91,0.00,,,0.00,Wunderground PWS Mod,2013-06-06 06:16:00,
2013-06-06 02:22:00,53.9,51.6,30.12,WSW,241,0.0,0.0,92,0.00,,,0.00,Wunderground PWS Mod,2013-06-06 06:22:00,
2013-06-06 02:27:00,53.8,51.5,30.12,WSW,241,0.0,0.0,92,0.00,,,0.00,Wunderground PWS Mod,2013-06-06 06:27:00,
2013-06-06 02:32:00,53.8,51.5,30.12,WSW,241,0.0,0.0,92,0.00,,,0.00,Wunderground PWS Mod,2013-06-06 06:32:00,
2013-06-06 02:37:00,53.8,51.5,30.12,WSW,241,0.0,0.0,92,0.00,,,0.00,Wunderground PWS Mod,2013-06-06 06:37:00,
2013-06-06 02:44:00,53.8,51.8,30.12,WSW,241,0.0,0.0,93,0.00,,,0.00,Wunderground PWS Mod,2013-06-06 06:44:00,
2013-06-06 02:49:00,53.9,51.9,30.12,WSW,241,0.0,0.0,93,0.00,,,0.00,Wunderground PWS Mod,2013-06-06 06:49:00,
2013-06-06 02:54:00,54.1,52.1,30.13,WSW,241,0.0,0.0,93,0.00,,,0.00,Wunderground PWS Mod,2013-06-06 06:54:00,
2013-06-06 03:00:00,54.4,52.4,30.13,WSW,241,0.0,0.0,93,0.00,,,0.00,Wunderground PWS Mod,2013-06-06 07:00:00,
2013-06-06 03:05:00,54.5,52.5,30.13,WSW,241,0.0,0.0,93,0.00,,,0.00,Wunderground PWS Mod,2013-06-06 07:05:00,
2013-06-06 03:11:00,54.6,52.6,30.13,WSW,241,0.0,0.0,93,0.00,,,0.00,Wunderground PWS Mod,2013-06-06 07:11:00,
2013-06-06 03:16:00,54.7,52.4,30.13,WSW,241,0.0,0.0,92,0.00,,,0.00,Wunderground PWS Mod,2013-06-06 07:16:00,
2013-06-06 03:21:00,54.8,52.8,30.13,WSW,241,0.0,0.0,93,0.00,,,0.00,Wunderground PWS Mod,2013-06-06 07:21:00,
2013-06-06 03:26:00,54.9,52.6,30.13,WSW,241,0.0,0.0,92,0.00,,,0.00,Wunderground PWS Mod,2013-06-06 07:26:00,
2013-06-06 03:32:00,54.8,52.5,30.12,WSW,241,0.0,0.0,92,0.00,,,0.00,Wunderground PWS Mod,2013-06-06 07:32:00,
2013-06-06 03:37:00,54.8,52.5,30.12,WSW,241,0.0,0.0,92,0.00,,,0.00,Wunderground PWS Mod,2013-06-06 07:37:00,
2013-06-06 03:43:00,54.7,52.4,30.13,WSW,241,0.0,0.0,92,0.00,,,0.00,Wunderground PWS Mod,2013-06-06 07:43:00,
2013-06-06 03:48:00,54.6,52.0,30.13,WSW,241,0.0,0.0,91,0.00,,,0.00,Wunderground PWS Mod,2013-06-06 07:48:00,
2013-06-06 03:54:00,54.5,51.9,30.13,WSW,241,0.0,0.0,91,0.00,,,0.00,Wunderground PWS Mod,2013-06-06 07:54:00,
2013-06-06 04:00:00,54.3,51.4,30.13,WSW,241,0.0,0.0,90,0.00,,,0.00,Wunderground PWS Mod,2013-06-06 08:00:00,
2013-06-06 04:05:00,54.1,51.2,30.13,WSW,241,0.0,0.0,90,0.00,,,0.00,Wunderground PWS Mod,2013-06-06 08:05:00,
2013-06-06 04:11:00,53.8,50.9,30.13,WSW,241,0.0,0.0,90,0.00,,,0.00,Wunderground PWS Mod,2013-06-06 08:11:00,
2013-06-06 04:14:00,54.2,51.3,30.13,N/A,-737280,0.0,0.0,90,0.00,,,0.00,Wunderground PWS Mod,2013-06-06 08:14:00,
2013-06-06 04:16:00,53.5,50.9,30.13,WSW,241,0.0,0.0,91,0.00,,,0.00,Wunderground PWS Mod,2013-06-06 08:16:00,
2013-06-06 04:22:00,53.3,50.7,30.12,WSW,241,0.0,0.0,91,0.00,,,0.00,Wunderground PWS Mod,2013-06-06 08:22:00,
2013-06-06 04:27:00,53.2,50.6,30.13,WSW,241,0.0,0.0,91,0.00,,,0.00,Wunderground PWS Mod,2013-06-06 08:27:00,
2013-06-06 04:32:00,53.2,50.9,30.13,WSW,241,0.0,0.0,92,0.00,,,0.00,Wunderground PWS Mod,2013-06-06 08:32:00,
2013-06-06 04:37:00,53.1,51.1,30.12,WSW,241,0.0,0.0,93,0.00,,,0.00,Wunderground PWS Mod,2013-06-06 08:37:00,
2013-06-06 04:43:00,53.1,51.1,30.12,WSW,241,0.0,0.0,93,0.00,,,0.00,Wunderground PWS Mod,2013-06-06 08:43:00,
2013-06-06 04:49:00,53.0,51.0,30.13,WSW,241,0.0,0.0,93,0.00,,,0.00,Wunderground PWS Mod,2013-06-06 08:49:00,
2013-06-06 04:54:00,52.9,51.2,30.12,WSW,241,0.0,0.0,94,0.00,,,0.00,Wunderground PWS Mod,2013-06-06 08:54:00,
2013-06-06 05:00:00,53.0,51.3,30.13,WSW,241,0.0,0.0,94,0.00,,,0.00,Wunderground PWS Mod,2013-06-06 09:00:00,
2013-06-06 05:06:00,53.0,51.6,30.13,WSW,241,0.0,0.0,95,0.00,,,0.00,Wunderground PWS Mod,2013-06-06 09:06:00,
2013-06-06 05:11:00,53.2,51.8,30.13,WSW,241,0.0,0.0,95,0.00,,,0.00,Wunderground PWS Mod,2013-06-06 09:11:00,
2013-06-06 05:17:00,53.3,51.9,30.13,WSW,241,0.0,0.0,95,0.00,,,0.00,Wunderground PWS Mod,2013-06-06 09:17:00,
2013-06-06 05:22:00,53.3,52.2,30.13,WSW,241,0.0,0.0,96,0.00,,,0.00,Wunderground PWS Mod,2013-06-06 09:22:00,
2013-06-06 05:27:00,53.4,52.3,30.13,WSW,241,0.0,0.0,96,0.00,,,0.00,Wunderground PWS Mod,2013-06-06 09:27:00,
2013-06-06 05:33:00,53.5,52.4,30.13,WSW,241,0.0,0.0,96,0.00,,,0.00,Wunderground PWS Mod,2013-06-06 09:33:00,
2013-06-06 05:38:00,53.6,52.5,30.13,WSW,241,0.0,0.0,96,0.00,,,0.00,Wunderground PWS Mod,2013-06-06 09:38:00,
2013-06-06 05:44:00,53.7,52.6,30.13,WSW,241,0.0,0.0,96,0.00,,,0.00,Wunderground PWS Mod,2013-06-06 09:44:00,
2013-06-06 05:50:00,53.8,52.7,30.13,WSW,241,0.0,0.0,96,0.00,,,0.00,Wunderground PWS Mod,2013-06-06 09:50:00,
2013-06-06 05:56:00,53.8,52.7,30.13,WSW,241,0.0,0.0,96,0.00,,,0.00,Wunderground PWS Mod,2013-06-06 09:56:00,
2013-06-06 06:02:00,53.9,52.8,30.13,WSW,241,0.0,0.0,96,0.00,,,0.00,Wunderground PWS Mod,2013-06-06 10:02:00,
2013-06-06 06:07:00,53.9,52.8,30.13,WSW,241,0.0,0.0,96,0.00,,,0.00,Wunderground PWS Mod,2013-06-06 10:07:00,
2013-06-06 06:13:00,54.1,53.0,30.14,WSW,241,0.0,0.0,96,0.00,,,0.00,Wunderground PWS Mod,2013-06-06 10:13:00,
2013-06-06 06:18:00,54.1,53.0,30.13,WSW,241,0.0,0.0,96,0.00,,,0.00,Wunderground PWS Mod,2013-06-06 10:18:00,
2013-06-06 06:23:00,54.2,53.1,30.14,WSW,241,0.0,0.0,96,0.00,,,0.00,Wunderground PWS Mod,2013-06-06 10:23:00,
2013-06-06 06:29:00,54.3,53.2,30.13,WSW,241,0.0,0.0,96,0.00,,,0.00,Wunderground PWS Mod,2013-06-06 10:29:00,
2013-06-06 06:34:00,54.5,53.4,30.13,WSW,241,0.0,0.0,96,0.00,,,0.00,Wunderground PWS Mod,2013-06-06 10:34:00,
2013-06-06 06:40:00,54.6,53.5,30.14,WSW,241,0.0,0.0,96,0.00,,,0.00,Wunderground PWS Mod,2013-06-06 10:40:00,
2013-06-06 06:46:00,54.8,53.7,30.14,WSW,241,0.0,0.0,96,0.00,,,0.00,Wunderground PWS Mod,2013-06-06 10:46:00,
2013-06-06 06:52:00,55.0,54.2,30.14,WSW,241,0.0,0.0,97,0.00,,,0.00,Wunderground PWS Mod,2013-06-06 10:52:00,
2013-06-06 06:58:00,55.2,54.4,30.14,WSW,241,0.0,0.0,97,0.00,,,0.00,Wunderground PWS Mod,2013-06-06 10:58:00,
2013-06-06 07:04:00,55.3,54.2,30.14,WSW,241,0.0,0.0,96,0.00,,,0.00,Wunderground PWS Mod,2013-06-06 11:04:00,
2013-06-06 07:10:00,55.6,54.8,30.14,WSW,241,0.0,0.0,97,0.00,,,0.00,Wunderground PWS Mod,2013-06-06 11:10:00,
2013-06-06 07:16:00,55.9,55.1,30.14,WSW,241,0.0,0.0,97,0.00,,,0.00,Wunderground PWS Mod,2013-06-06 11:16:00,
2013-06-06 07:21:00,56.1,55.3,30.14,WSW,241,0.0,0.0,97,0.00,,,0.00,Wunderground PWS Mod,2013-06-06 11:21:00,
2013-06-06 07:27:00,56.2,55.4,30.15,WSW,241,0.0,0.0,97,0.00,,,0.00,Wunderground PWS Mod,2013-06-06 11:27:00,
2013-06-06 07:32:00,56.3,55.2,30.15,WSW,241,0.0,0.0,96,0.00,,,0.00,Wunderground PWS Mod,2013-06-06 11:32:00,
2013-06-06 07:37:00,56.6,55.5,30.15,WSW,241,0.0,0.0,96,0.00,,,0.00,Wunderground PWS Mod,2013-06-06 11:37:00,
2013-06-06 07:43:00,56.8,55.7,30.15,WSW,241,0.0,0.0,96,0.00,,,0.00,Wunderground PWS Mod,2013-06-06 11:43:00,
2013-06-06 07:48:00,57.1,56.0,30.15,WSW,241,0.0,0.0,96,0.00,,,0.00,Wunderground PWS Mod,2013-06-06 11:48:00,
2013-06-06 07:53:00,57.3,56.2,30.15,WSW,241,0.0,0.0,96,0.00,,,0.00,Wunderground PWS Mod,2013-06-06 11:53:00,
2013-06-06 07:58:00,57.5,56.4,30.15,WSW,241,0.0,0.0,96,0.00,,,0.00,Wunderground PWS Mod,2013-06-06 11:58:00,
2013-06-06 08:04:00,57.8,56.4,30.15,WSW,241,0.0,0.0,95,0.00,,,0.00,Wunderground PWS Mod,2013-06-06 12:04:00,
2013-06-06 08:08:00,57.7,56.6,30.15,N/A,-737280,0.0,0.0,96,0.00,,,0.00,Wunderground PWS Mod,2013-06-06 12:08:00,
2013-06-06 08:10:00,58.0,56.6,30.14,WSW,241,0.0,0.0,95,0.00,,,0.00,Wunderground PWS Mod,2013-06-06 12:10:00,
2013-06-06 08:15:00,58.2,56.8,30.14,WSW,241,0.0,0.0,95,0.00,,,0.00,Wunderground PWS Mod,2013-06-06 12:15:00,
2013-06-06 08:20:00,58.4,57.0,30.15,WSW,241,0.0,0.0,95,0.00,,,0.00,Wunderground PWS Mod,2013-06-06 12:20:00,
2013-06-06 08:25:00,58.8,57.4,30.15,WSW,241,0.0,0.0,95,0.00,,,0.00,Wunderground PWS Mod,2013-06-06 12:25:00,
2013-06-06 08:30:00,59.1,57.4,30.14,WSW,241,0.0,0.0,94,0.00,,,0.00,Wunderground PWS Mod,2013-06-06 12:30:00,
2013-06-06 08:36:00,59.4,57.4,30.14,WNW,298,0.0,0.0,93,0.00,,,0.00,Wunderground PWS Mod,2013-06-06 12:36:00,
2013-06-06 08:41:00,59.5,57.5,30.14,West,263,0.0,0.0,93,0.00,,,0.00,Wunderground PWS Mod,2013-06-06 12:41:00,
2013-06-06 08:46:00,59.7,57.7,30.14,West,263,0.0,0.0,93,0.00,,,0.00,Wunderground PWS Mod,2013-06-06 12:46:00,
2013-06-06 08:52:00,59.9,57.9,30.14,WNW,282,0.0,0.0,93,0.00,,,0.00,Wunderground PWS Mod,2013-06-06 12:52:00,
2013-06-06 08:58:00,60.3,58.0,30.14,WNW,282,0.0,0.0,92,0.00,,,0.00,Wunderground PWS Mod,2013-06-06 12:58:00,
2013-06-06 09:03:00,60.7,58.4,30.14,WNW,282,0.0,0.0,92,0.00,,,0.00,Wunderground PWS Mod,2013-06-06 13:03:00,
2013-06-06 09:08:00,61.6,59.3,30.13,North,355,0.0,0.0,92,0.00,,,0.00,Wunderground PWS Mod,2013-06-06 13:08:00,
2013-06-06 09:14:00,62.6,59.3,30.14,North,355,0.0,0.0,89,0.00,,,0.00,Wunderground PWS Mod,2013-06-06 13:14:00,
2013-06-06 09:20:00,63.2,58.9,30.14,NW,325,0.0,0.0,86,0.00,,,0.00,Wunderground PWS Mod,2013-06-06 13:20:00,
2013-06-06 09:25:00,64.0,59.4,30.13,NW,323,0.0,0.0,85,0.00,,,0.00,Wunderground PWS Mod,2013-06-06 13:25:00,
2013-06-06 09:31:00,64.9,59.3,30.13,WSW,253,0.0,0.0,82,0.00,,,0.00,Wunderground PWS Mod,2013-06-06 13:31:00,
2013-06-06 09:36:00,65.0,59.4,30.13,WSW,252,0.0,0.0,82,0.00,,,0.00,Wunderground PWS Mod,2013-06-06 13:36:00,
2013-06-06 09:42:00,65.1,59.5,30.14,WSW,252,0.0,0.0,82,0.00,,,0.00,Wunderground PWS Mod,2013-06-06 13:42:00,
2013-06-06 09:48:00,65.0,59.4,30.13,SSW,192,0.0,0.0,82,0.00,,,0.00,Wunderground PWS Mod,2013-06-06 13:48:00,
2013-06-06 09:53:00,65.1,59.5,30.13,South,182,0.0,0.0,82,0.00,,,0.00,Wunderground PWS Mod,2013-06-06 13:53:00,
2013-06-06 09:59:00,65.0,59.4,30.13,NNW,348,0.0,0.0,82,0.00,,,0.00,Wunderground PWS Mod,2013-06-06 13:59:00,
2013-06-06 10:04:00,64.4,59.5,30.13,NNW,348,0.0,0.0,84,0.00,,,0.00,Wunderground PWS Mod,2013-06-06 14:04:00,
2013-06-06 10:10:00,64.7,60.1,30.13,NNE,32,0.0,0.0,85,0.00,,,0.00,Wunderground PWS Mod,2013-06-06 14:10:00,
2013-06-06 10:15:00,65.5,60.5,30.13,NNW,345,0.0,0.0,84,0.00,,,0.00,Wunderground PWS Mod,2013-06-06 14:15:00,
2013-06-06 10:20:00,66.2,60.9,30.13,NNW,341,0.0,0.0,83,0.00,,,0.00,Wunderground PWS Mod,2013-06-06 14:20:00,
2013-06-06 10:26:00,66.9,60.2,30.13,North,349,0.0,0.0,79,0.00,,,0.00,Wunderground PWS Mod,2013-06-06 14:26:00,
2013-06-06 10:31:00,67.3,59.8,30.14,WSW,250,0.0,2.0,77,0.00,,,0.00,Wunderground PWS Mod,2013-06-06 14:31:00,
2013-06-06 10:37:00,68.1,60.2,30.13,SW,227,0.0,0.0,76,0.00,,,0.00,Wunderground PWS Mod,2013-06-06 14:37:00,
2013-06-06 10:42:00,68.1,59.9,30.14,WSW,239,0.0,0.0,75,0.00,,,0.00,Wunderground PWS Mod,2013-06-06 14:42:00,
2013-06-06 10:47:00,68.4,60.2,30.14,WSW,238,0.0,0.0,75,0.00,,,0.00,Wunderground PWS Mod,2013-06-06 14:47:00,
2013-06-06 10:53:00,68.9,59.5,30.13,WSW,250,0.0,0.0,72,0.00,,,0.00,Wunderground PWS Mod,2013-06-06 14:53:00,
2013-06-06 10:58:00,69.1,59.7,30.13,SSW,196,0.0,0.0,72,0.00,,,0.00,Wunderground PWS Mod,2013-06-06 14:58:00,
2013-06-06 11:03:00,69.2,60.2,30.13,South,183,0.0,0.0,73,0.00,,,0.00,Wunderground PWS Mod,2013-06-06 15:03:00,
2013-06-06 11:08:00,69.5,60.1,30.13,South,184,0.0,0.0,72,0.00,,,0.00,Wunderground PWS Mod,2013-06-06 15:08:00,
2013-06-06 11:14:00,70.1,57.8,30.13,WSW,246,0.0,0.0,65,0.00,,,0.00,Wunderground PWS Mod,2013-06-06 15:14:00,
2013-06-06 11:20:00,70.8,60.5,30.12,SSW,210,0.0,0.0,70,0.00,,,0.00,Wunderground PWS Mod,2013-06-06 15:20:00,
2013-06-06 11:26:00,71.3,59.8,30.12,ENE,62,0.0,0.0,67,0.00,,,0.00,Wunderground PWS Mod,2013-06-06 15:26:00,
2013-06-06 11:32:00,71.3,58.1,30.12,SW,227,0.0,0.0,63,0.00,,,0.00,Wunderground PWS Mod,2013-06-06 15:32:00,
2013-06-06 11:37:00,71.6,59.2,30.12,NNE,15,0.0,1.0,65,0.00,,,0.00,Wunderground PWS Mod,2013-06-06 15:37:00,
2013-06-06 11:43:00,72.2,56.6,30.12,SW,219,0.0,0.0,58,0.00,,,0.00,Wunderground PWS Mod,2013-06-06 15:43:00,
2013-06-06 11:48:00,72.6,57.9,30.12,SW,232,0.0,0.0,60,0.00,,,0.00,Wunderground PWS Mod,2013-06-06 15:48:00,
2013-06-06 11:53:00,72.9,56.3,30.12,WSW,249,0.0,0.0,56,0.00,,,0.00,Wunderground PWS Mod,2013-06-06 15:53:00,
2013-06-06 11:58:00,73.1,57.4,30.12,South,180,0.0,0.0,58,0.00,,,0.00,Wunderground PWS Mod,2013-06-06 15:58:00,
2013-06-06 12:04:00,73.5,57.3,30.12,ESE,115,0.0,0.0,57,0.00,,,0.00,Wunderground PWS Mod,2013-06-06 16:04:00,
2013-06-06 12:10:00,73.6,57.9,30.12,West,271,0.0,5.0,58,0.00,,,0.00,Wunderground PWS Mod,2013-06-06 16:10:00,
2013-06-06 12:14:00,73.4,57.2,30.12,NNE,23,0.0,5.0,57,0.00,,,0.00,Wunderground PWS Mod,2013-06-06 16:14:00,
2013-06-06 12:15:00,73.7,55.0,30.12,WSW,254,0.0,5.0,52,0.00,,,0.00,Wunderground PWS Mod,2013-06-06 16:15:00,
2013-06-06 12:21:00,73.4,55.7,30.12,SW,222,0.0,5.0,54,0.00,,,0.00,Wunderground PWS Mod,2013-06-06 16:21:00,
2013-06-06 12:26:00,73.2,55.0,30.12,SW,221,0.0,5.0,53,0.00,,,0.00,Wunderground PWS Mod,2013-06-06 16:26:00,
2013-06-06 12:31:00,73.0,54.3,30.12,WSW,246,0.0,5.0,52,0.00,,,0.00,Wunderground PWS Mod,2013-06-06 16:31:00,
2013-06-06 12:37:00,72.4,54.3,30.12,SW,215,1.0,5.0,53,0.00,,,0.00,Wunderground PWS Mod,2013-06-06 16:37:00,
2013-06-06 12:43:00,72.1,53.5,30.12,WSW,256,1.0,5.0,52,0.00,,,0.00,Wunderground PWS Mod,2013-06-06 16:43:00,
2013-06-06 12:48:00,71.8,55.3,30.12,SSW,201,0.0,5.0,56,0.00,,,0.00,Wunderground PWS Mod,2013-06-06 16:48:00,
2013-06-06 12:53:00,71.5,54.0,30.11,SSW,213,0.0,5.0,54,0.00,,,0.00,Wunderground PWS Mod,2013-06-06 16:53:00,
2013-06-06 12:58:00,71.0,55.9,30.12,West,260,0.0,5.0,59,0.00,,,0.00,Wunderground PWS Mod,2013-06-06 16:58:00,
2013-06-06 13:04:00,70.5,55.5,30.11,South,178,0.0,5.0,59,0.00,,,0.00,Wunderground PWS Mod,2013-06-06 17:04:00,
2013-06-06 13:10:00,70.1,56.9,30.11,South,191,0.0,5.0,63,0.00,,,0.00,Wunderground PWS Mod,2013-06-06 17:10:00,
2013-06-06 13:15:00,69.9,57.6,30.11,WSW,240,0.0,5.0,65,0.00,,,0.00,Wunderground PWS Mod,2013-06-06 17:15:00,
2013-06-06 13:20:00,69.5,58.5,30.11,SW,224,0.0,5.0,68,0.00,,,0.00,Wunderground PWS Mod,2013-06-06 17:20:00,
2013-06-06 13:26:00,69.0,58.8,30.11,ESE,113,0.0,5.0,70,0.00,,,0.00,Wunderground PWS Mod,2013-06-06 17:26:00,
2013-06-06 13:32:00,68.4,59.0,30.11,SW,232,0.0,5.0,72,0.00,,,0.00,Wunderground PWS Mod,2013-06-06 17:32:00,
2013-06-06 13:37:00,68.3,59.3,30.11,SSW,213,0.0,5.0,73,0.00,,,0.00,Wunderground PWS Mod,2013-06-06 17:37:00,
2013-06-06 13:43:00,68.1,59.9,30.11,SW,235,0.0,5.0,75,0.00,,,0.00,Wunderground PWS Mod,2013-06-06 17:43:00,
2013-06-06 13:48:00,67.8,58.4,30.10,SSW,200,1.0,5.0,72,0.00,,,0.00,Wunderground PWS Mod,2013-06-06 17:48:00,
2013-06-06 13:53:00,67.6,59.0,30.10,NW,308,1.0,5.0,74,0.00,,,0.00,Wunderground PWS Mod,2013-06-06 17:53:00,
2013-06-06 13:58:00,67.5,59.3,30.10,SSW,194,1.0,5.0,75,0.00,,,0.00,Wunderground PWS Mod,2013-06-06 17:58:00,
2013-06-06 14:04:00,67.8,58.1,30.10,East,88,0.0,5.0,71,0.00,,,0.00,Wunderground PWS Mod,2013-06-06 18:04:00,
2013-06-06 14:10:00,68.2,56.8,30.09,ESE,108,1.0,5.0,67,0.00,,,0.00,Wunderground PWS Mod,2013-06-06 18:10:00,
2013-06-06 14:16:00,68.7,58.5,30.09,SE,139,1.0,5.0,70,0.00,,,0.00,Wunderground PWS Mod,2013-06-06 18:16:00,
2013-06-06 14:21:00,68.7,58.1,30.09,NW,326,0.0,5.0,69,0.00,,,0.00,Wunderground PWS Mod,2013-06-06 18:21:00,
2013-06-06 14:26:00,68.8,56.6,30.09,SSW,211,0.0,5.0,65,0.00,,,0.00,Wunderground PWS Mod,2013-06-06 18:26:00,
2013-06-06 14:32:00,69.1,58.1,30.09,WSW,253,0.0,5.0,68,0.00,,,0.00,Wunderground PWS Mod,2013-06-06 18:32:00,
2013-06-06 14:37:00,69.1,56.0,30.09,SE,137,0.0,5.0,63,0.00,,,0.00,Wunderground PWS Mod,2013-06-06 18:37:00,
2013-06-06 14:43:00,68.8,56.1,30.09,SSW,211,1.0,5.0,64,0.00,,,0.00,Wunderground PWS Mod,2013-06-06 18:43:00,
2013-06-06 14:48:00,68.5,56.3,30.09,SSW,200,1.0,5.0,65,0.00,,,0.00,Wunderground PWS Mod,2013-06-06 18:48:00,
2013-06-06 14:54:00,68.0,55.4,30.09,SE,132,1.0,5.0,64,0.00,,,0.00,Wunderground PWS Mod,2013-06-06 18:54:00,
2013-06-06 15:00:00,67.6,55.4,30.08,ENE,78,1.0,5.0,65,0.00,,,0.00,Wunderground PWS Mod,2013-06-06 19:00:00,
2013-06-06 15:05:00,67.1,55.8,30.08,SSW,203,0.0,5.0,67,0.00,,,0.00,Wunderground PWS Mod,2013-06-06 19:05:00,
2013-06-06 15:11:00,66.8,55.1,30.08,SSW,201,0.0,5.0,66,0.00,,,0.00,Wunderground PWS Mod,2013-06-06 19:11:00,
2013-06-06 15:16:00,66.7,55.0,30.08,SSE,159,0.0,5.0,66,0.00,,,0.00,Wunderground PWS Mod,2013-06-06 19:16:00,
2013-06-06 15:22:00,66.7,56.2,30.08,West,262,0.0,5.0,69,0.00,,,0.00,Wunderground PWS Mod,2013-06-06 19:22:00,
2013-06-06 15:27:00,66.9,56.4,30.08,SW,217,0.0,5.0,69,0.00,,,0.00,Wunderground PWS Mod,2013-06-06 19:27:00,
2013-06-06 15:32:00,66.9,56.4,30.09,South,185,1.0,5.0,69,0.00,,,0.00,Wunderground PWS Mod,2013-06-06 19:32:00,
2013-06-06 15:34:00,66.9,56.4,30.09,SSW,199,1.0,5.0,69,0.00,,,0.00,Wunderground PWS Mod,2013-06-06 19:34:00,
2013-06-06 15:40:00,66.7,57.4,30.09,ESE,106,1.0,5.0,72,0.00,,,0.00,Wunderground PWS Mod,2013-06-06 19:40:00,
2013-06-06 15:45:00,66.5,57.2,30.09,SE,146,1.0,5.0,72,0.00,,,0.00,Wunderground PWS Mod,2013-06-06 19:45:00,
2013-06-06 15:50:00,66.5,58.0,30.09,South,190,0.0,5.0,74,0.00,,,0.00,Wunderground PWS Mod,2013-06-06 19:50:00,
2013-06-06 15:55:00,66.4,57.9,30.08,South,176,0.0,5.0,74,0.00,,,0.00,Wunderground PWS Mod,2013-06-06 19:55:00,
2013-06-06 16:01:00,66.2,57.7,30.08,South,191,0.0,5.0,74,0.00,,,0.00,Wunderground PWS Mod,2013-06-06 20:01:00,
2013-06-06 16:07:00,66.3,57.8,30.08,South,173,0.0,7.0,74,0.00,,,0.00,Wunderground PWS Mod,2013-06-06 20:07:00,
2013-06-06 16:12:00,66.5,58.0,30.09,South,183,0.0,7.0,74,0.00,,,0.00,Wunderground PWS Mod,2013-06-06 20:12:00,
2013-06-06 16:14:00,66.2,58.0,30.08,SW,225,0.0,7.0,75,0.00,,,0.00,Wunderground PWS Mod,2013-06-06 20:14:00,
2013-06-06 16:17:00,66.7,58.1,30.09,SW,229,0.0,7.0,74,0.00,,,0.00,Wunderground PWS Mod,2013-06-06 20:17:00,
2013-06-06 16:23:00,67.0,58.8,30.09,SE,126,0.0,7.0,75,0.00,,,0.00,Wunderground PWS Mod,2013-06-06 20:23:00,
2013-06-06 16:28:00,67.1,58.9,30.09,SSW,212,0.0,7.0,75,0.00,,,0.00,Wunderground PWS Mod,2013-06-06 20:28:00,
2013-06-06 16:34:00,66.7,58.1,30.08,SSW,194,0.0,7.0,74,0.00,,,0.00,Wunderground PWS Mod,2013-06-06 20:34:00,
2013-06-06 16:40:00,66.3,58.1,30.08,WSW,239,0.0,7.0,75,0.00,,,0.00,Wunderground PWS Mod,2013-06-06 20:40:00,
2013-06-06 16:45:00,65.9,57.7,30.08,SSE,158,0.0,7.0,75,0.00,,,0.00,Wunderground PWS Mod,2013-06-06 20:45:00,
2013-06-06 16:50:00,65.6,57.8,30.07,South,182,0.0,7.0,76,0.00,,,0.00,Wunderground PWS Mod,2013-06-06 20:50:00,
2013-06-06 16:56:00,65.2,57.1,30.07,WSW,242,0.0,7.0,75,0.00,,,0.00,Wunderground PWS Mod,2013-06-06 20:56:00,
2013-06-06 17:01:00,64.8,57.1,30.07,SSW,202,0.0,7.0,76,0.00,,,0.00,Wunderground PWS Mod,2013-06-06 21:01:00,
2013-06-06 17:06:00,64.4,56.7,30.07,SSW,192,0.0,7.0,76,0.00,,,0.00,Wunderground PWS Mod,2013-06-06 21:06:00,
2013-06-06 17:12:00,64.0,56.3,30.07,SSE,153,0.0,7.0,76,0.00,,,0.00,Wunderground PWS Mod,2013-06-06 21:12:00,
2013-06-06 17:17:00,63.6,55.9,30.07,South,172,0.0,7.0,76,0.00,,,0.00,Wunderground PWS Mod,2013-06-06 21:17:00,
2013-06-06 17:23:00,63.3,56.3,30.07,South,177,0.0,7.0,78,0.00,,,0.00,Wunderground PWS Mod,2013-06-06 21:23:00,
2013-06-06 17:28:00,63.0,56.0,30.07,West,269,0.0,7.0,78,0.00,,,0.00,Wunderground PWS Mod,2013-06-06 21:28:00,
2013-06-06 17:33:00,62.9,56.3,30.07,WSW,250,0.0,7.0,79,0.00,,,0.00,Wunderground PWS Mod,2013-06-06 21:33:00,
2013-06-06 17:39:00,62.7,56.1,30.07,WSW,250,0.0,7.0,79,0.00,,,0.00,Wunderground PWS Mod,2013-06-06 21:39:00,
2013-06-06 17:44:00,62.6,56.0,30.07,SW,217,0.0,7.0,79,0.00,,,0.00,Wunderground PWS Mod,2013-06-06 21:44:00,
2013-06-06 17:50:00,62.5,55.9,30.07,SW,214,0.0,7.0,79,0.00,,,0.00,Wunderground PWS Mod,2013-06-06 21:50:00,
2013-06-06 17:55:00,62.3,56.0,30.07,SW,214,0.0,7.0,80,0.00,,,0.00,Wunderground PWS Mod,2013-06-06 21:55:00,
2013-06-06 18:00:00,62.3,56.0,30.07,SW,214,0.0,7.0,80,0.00,,,0.00,Wunderground PWS Mod,2013-06-06 22:00:00,
2013-06-06 18:05:00,62.2,56.0,30.07,SSW,213,0.0,7.0,80,0.00,,,0.00,Wunderground PWS Mod,2013-06-06 22:05:00,
2013-06-06 18:11:00,62.1,55.9,30.07,SW,234,0.0,7.0,80,0.00,,,0.00,Wunderground PWS Mod,2013-06-06 22:11:00,
2013-06-06 18:16:00,62.1,55.9,30.07,SW,234,0.0,7.0,80,0.00,,,0.00,Wunderground PWS Mod,2013-06-06 22:16:00,
2013-06-06 18:22:00,61.9,55.7,30.07,WNW,292,0.0,7.0,80,0.00,,,0.00,Wunderground PWS Mod,2013-06-06 22:22:00,
2013-06-06 18:27:00,61.8,55.9,30.07,WNW,292,0.0,7.0,81,0.00,,,0.00,Wunderground PWS Mod,2013-06-06 22:27:00,
2013-06-06 18:33:00,61.7,55.5,30.08,WNW,292,0.0,7.0,80,0.00,,,0.00,Wunderground PWS Mod,2013-06-06 22:33:00,
2013-06-06 18:38:00,61.7,55.8,30.08,WNW,290,0.0,7.0,81,0.00,,,0.00,Wunderground PWS Mod,2013-06-06 22:38:00,
2013-06-06 18:43:00,61.6,55.4,30.08,WNW,290,0.0,7.0,80,0.00,,,0.00,Wunderground PWS Mod,2013-06-06 22:43:00,
2013-06-06 18:49:00,61.5,55.3,30.08,WNW,290,0.0,7.0,80,0.00,,,0.00,Wunderground PWS Mod,2013-06-06 22:49:00,
2013-06-06 18:54:00,61.4,55.2,30.08,WNW,290,0.0,7.0,80,0.00,,,0.00,Wunderground PWS Mod,2013-06-06 22:54:00,
2013-06-06 19:00:00,61.4,54.8,30.08,WNW,290,0.0,7.0,79,0.00,,,0.00,Wunderground PWS Mod,2013-06-06 23:00:00,
2013-06-06 19:05:00,61.3,55.1,30.08,WNW,290,0.0,7.0,80,0.00,,,0.00,Wunderground PWS Mod,2013-06-06 23:05:00,
2013-06-06 19:11:00,61.1,54.5,30.08,WNW,290,0.0,7.0,79,0.00,,,0.00,Wunderground PWS Mod,2013-06-06 23:11:00,
2013-06-06 19:16:00,60.9,55.0,30.08,WNW,290,0.0,7.0,81,0.00,,,0.00,Wunderground PWS Mod,2013-06-06 23:16:00,
2013-06-06 19:21:00,60.8,54.9,30.08,WNW,290,0.0,7.0,81,0.00,,,0.00,Wunderground PWS Mod,2013-06-06 23:21:00,
2013-06-06 19:27:00,60.6,54.7,30.08,WNW,290,0.0,7.0,81,0.00,,,0.00,Wunderground PWS Mod,2013-06-06 23:27:00,
2013-06-06 19:33:00,60.5,54.0,30.08,WNW,290,0.0,7.0,79,0.00,,,0.00,Wunderground PWS Mod,2013-06-06 23:33:00,
2013-06-06 19:38:00,60.3,54.1,30.08,WNW,290,0.0,7.0,80,0.00,,,0.00,Wunderground PWS Mod,2013-06-06 23:38:00,
2013-06-06 19:44:00,60.2,54.0,30.07,WNW,290,0.0,7.0,80,0.00,,,0.00,Wunderground PWS Mod,2013-06-06 23:44:00,
2013-06-06 19:50:00,60.1,53.9,30.07,WNW,290,0.0,7.0,80,0.00,,,0.00,Wunderground PWS Mod,2013-06-06 23:50:00,
2013-06-06 19:55:00,60.0,53.8,30.08,WNW,290,0.0,7.0,80,0.00,,,0.00,Wunderground PWS Mod,2013-06-06 23:55:00,
2013-06-06 20:01:00,59.9,54.1,30.07,WNW,290,0.0,7.0,81,0.00,,,0.00,Wunderground PWS Mod,2013-06-07 00:01:00,
2013-06-06 20:07:00,59.8,54.0,30.07,WNW,290,0.0,0.0,81,0.00,,,0.00,Wunderground PWS Mod,2013-06-07 00:07:00,
2013-06-06 20:12:00,59.7,54.2,30.07,WNW,290,0.0,0.0,82,0.00,,,0.00,Wunderground PWS Mod,2013-06-07 00:12:00,
2013-06-06 20:14:00,59.8,54.0,30.08,N/A,-737280,0.0,0.0,81,0.00,,,0.02,Wunderground PWS Mod,2013-06-07 00:14:00,
2013-06-06 20:18:00,59.6,54.1,30.07,WNW,290,0.0,0.0,82,0.00,,,0.00,Wunderground PWS Mod,2013-06-07 00:18:00,
2013-06-06 20:23:00,59.6,53.8,30.07,WNW,290,0.0,0.0,81,0.00,,,0.00,Wunderground PWS Mod,2013-06-07 00:23:00,
2013-06-06 20:28:00,59.6,54.1,30.07,WNW,290,0.0,0.0,82,0.00,,,0.00,Wunderground PWS Mod,2013-06-07 00:28:00,
2013-06-06 20:34:00,59.5,54.0,30.06,WNW,290,0.0,0.0,82,0.00,,,0.00,Wunderground PWS Mod,2013-06-07 00:34:00,
2013-06-06 20:40:00,59.5,54.3,30.06,WNW,290,0.0,0.0,83,0.00,,,0.00,Wunderground PWS Mod,2013-06-07 00:40:00,
2013-06-06 20:45:00,59.4,53.9,30.06,WNW,290,0.0,0.0,82,0.00,,,0.00,Wunderground PWS Mod,2013-06-07 00:45:00,
2013-06-06 20:50:00,59.3,53.8,30.06,WNW,290,0.0,0.0,82,0.00,,,0.00,Wunderground PWS Mod,2013-06-07 00:50:00,
2013-06-06 20:56:00,59.3,53.8,30.06,WNW,290,0.0,0.0,82,0.00,,,0.00,Wunderground PWS Mod,2013-06-07 00:56:00,
2013-06-06 21:02:00,59.2,53.7,30.06,WNW,292,0.0,0.0,82,0.00,,,0.00,Wunderground PWS Mod,2013-06-07 01:02:00,
2013-06-06 21:08:00,59.2,54.0,30.06,WNW,292,0.0,0.0,83,0.00,,,0.00,Wunderground PWS Mod,2013-06-07 01:08:00,
2013-06-06 21:13:00,59.1,54.3,30.07,WNW,292,0.0,0.0,84,0.00,,,0.00,Wunderground PWS Mod,2013-06-07 01:13:00,
2013-06-06 21:18:00,59.0,54.2,30.07,WNW,292,0.0,0.0,84,0.00,,,0.00,Wunderground PWS Mod,2013-06-07 01:18:00,
2013-06-06 21:23:00,58.7,54.5,30.07,WNW,292,0.0,0.0,86,0.00,,,0.00,Wunderground PWS Mod,2013-06-07 01:23:00,
2013-06-06 21:29:00,58.5,55.0,30.06,WNW,292,0.0,0.0,88,0.00,,,0.00,Wunderground PWS Mod,2013-06-07 01:29:00,
2013-06-06 21:34:00,58.1,54.9,30.06,WNW,292,0.0,0.0,89,0.00,,,0.00,Wunderground PWS Mod,2013-06-07 01:34:00,
2013-06-06 21:40:00,57.8,54.9,30.06,WNW,293,0.0,0.0,90,0.00,,,0.00,Wunderground PWS Mod,2013-06-07 01:40:00,
2013-06-06 21:45:00,57.6,54.7,30.06,WNW,293,0.0,0.0,90,0.00,,,0.00,Wunderground PWS Mod,2013-06-07 01:45:00,
2013-06-06 21:51:00,57.5,54.9,30.05,WNW,293,0.0,0.0,91,0.00,,,0.00,Wunderground PWS Mod,2013-06-07 01:51:00,
2013-06-06 21:56:00,57.3,55.0,30.06,WNW,293,0.0,0.0,92,0.00,,,0.01,Wunderground PWS Mod,2013-06-07 01:56:00,
2013-06-06 22:02:00,57.3,55.0,30.06,WNW,293,0.0,0.0,92,0.00,,,0.01,Wunderground PWS Mod,2013-06-07 02:02:00,
2013-06-06 22:07:00,57.2,55.2,30.05,NE,46,0.0,0.0,93,0.00,,,0.01,Wunderground PWS Mod,2013-06-07 02:07:00,
2013-06-06 22:12:00,57.1,55.1,30.05,ENE,58,0.0,0.0,93,0.00,,,0.01,Wunderground PWS Mod,2013-06-07 02:12:00,
2013-06-06 22:17:00,57.1,55.1,30.05,ENE,58,0.0,0.0,93,0.00,,,0.01,Wunderground PWS Mod,2013-06-07 02:17:00,
2013-06-06 22:22:00,57.1,55.1,30.05,ENE,59,0.0,0.0,93,0.00,,,0.01,Wunderground PWS Mod,2013-06-07 02:22:00,
2013-06-06 22:28:00,57.2,55.2,30.05,ENE,63,0.0,0.0,93,0.00,,,0.01,Wunderground PWS Mod,2013-06-07 02:28:00,
2013-06-06 22:34:00,57.2,55.2,30.05,ENE,63,0.0,0.0,93,0.00,,,0.01,Wunderground PWS Mod,2013-06-07 02:34:00,
2013-06-06 22:40:00,57.2,55.5,30.05,ENE,63,0.0,0.0,94,0.00,,,0.01,Wunderground PWS Mod,2013-06-07 02:40:00,
2013-06-06 22:46:00,57.3,55.6,30.04,ENE,64,0.0,0.0,94,0.00,,,0.01,Wunderground PWS Mod,2013-06-07 02:46:00,
2013-06-06 22:52:00,57.3,55.6,30.05,ENE,67,0.0,0.0,94,0.00,,,0.01,Wunderground PWS Mod,2013-06-07 02:52:00,
2013-06-06 22:57:00,57.3,55.6,30.05,ENE,67,0.0,0.0,94,0.00,,,0.01,Wunderground PWS Mod,2013-06-07 02:57:00,
2013-06-06 23:02:00,57.4,55.7,30.05,ENE,67,0.0,0.0,94,0.00,,,0.01,Wunderground PWS Mod,2013-06-07 03:02:00,
2013-06-06 23:07:00,57.4,55.7,30.05,ENE,67,0.0,0.0,94,0.00,,,0.01,Wunderground PWS Mod,2013-06-07 03:07:00,
2013-06-06 23:13:00,57.4,55.7,30.05,ENE,67,0.0,0.0,94,0.00,,,0.01,Wunderground PWS Mod,2013-06-07 03:13:00,
2013-06-06 23:18:00,57.4,55.7,30.05,ENE,67,0.0,0.0,94,0.00,,,0.01,Wunderground PWS Mod,2013-06-07 03:18:00,
2013-06-06 23:23:00,57.4,55.7,30.05,ENE,67,0.0,0.0,94,0.00,,,0.01,Wunderground PWS Mod,2013-06-07 03:23:00,
2013-06-06 23:29:00,57.4,55.7,30.05,ENE,67,0.0,0.0,94,0.00,,,0.01,Wunderground PWS Mod,2013-06-07 03:29:00,
2013-06-06 23:34:00,57.4,55.7,30.04,ENE,67,0.0,0.0,94,0.00,,,0.01,Wunderground PWS Mod,2013-06-07 03:34:00,
2013-06-06 23:40:00,57.3,55.6,30.04,ENE,67,0.0,0.0,94,0.00,,,0.01,Wunderground PWS Mod,2013-06-07 03:40:00,
2013-06-06 23:45:00,57.4,56.0,30.04,ENE,67,0.0,0.0,95,0.00,,,0.01,Wunderground PWS Mod,2013-06-07 03:45:00,
2013-06-06 23:51:00,57.3,55.9,30.03,ENE,67,0.0,0.0,95,0.00,,,0.01,Wunderground PWS Mod,2013-06-07 03:51:00,
2013-06-06 23:56:00,57.3,55.9,30.03,ENE,67,0.0,0.0,95,0.00,,,0.01,Wunderground PWS Mod,2013-06-07 03:56:00,